{"data":{"norad_id":63320,"epoch":"2026-05-24T21:16:11.268192Z","epoch_age_seconds":81575,"freshness":"FRESH","line1":"1 63320U 25057P   26144.88624153  .00011071  00000+0  41105-3 0  9990","line2":"2 63320  43.0010 309.8987 0001361 272.0891  87.9805 15.27595308 67553","mean_motion":15.27595308,"eccentricity":0.0001361,"inclination_deg":43.001,"raan_deg":309.8987,"arg_perigee_deg":272.0891,"mean_anomaly_deg":87.9805,"bstar":0.00041105,"rev_number":6755,"period_min":94.265804068573,"perigee_km":482.06945757419,"apogee_km":483.93705995263,"semimajor_km":6861.1402587634,"source":"CELESTRAK","updated_at":"2026-05-25T13:38:19.958657Z"}}